User: anonymous   Login
Location: Tauranga
(37.6860°S, 176.1670°E)
Time: 02:26:41
(UTC+13:00)
Language:

Cosmos 1763 Rocket - Orbit

View from above orbital plane
View from above orbital plane
View from above satellite
View from above satellite

Ground track
Ground track

The orbit data is extracted from the following two-line orbital elements,

1 16864U 86052B   19076.90585585 +.00000012 +00000-0 +12034-4 0  9991
2 16864 074.0312 352.1426 0034100 289.9040 069.8443 14.40535379714633
Epoch (UTC): 17 March 2019 21:44:25
Eccentricity: 0.0034100
inclination: 74.0312°
perigee height: 732 km
apogee height: 781 km
right ascension of ascending node: 352.1426°
argument of perigee: 289.9040°
revolutions per day: 14.40535379
mean anomaly at epoch: 69.8443°
orbit number at epoch: 71463

The dashed part of the orbit path shows where the satellite is in the earth's shadow,  

DLR